Regional Weather Roundup
Issued by NWS

Home | Current Version | Previous Version | Text Only | Print | Product List | Glossary Off
Versions: 1 2 3 4 5 6 7 8 9 10 11 12 13 14 15 16 17 18 19 20 21 22 23 24 25 26 27 28 29 30 31 32 33 34 35 36 37 38 39 40 41 42 43 44 45 46 47 48 49 50

000
ASUS43 KDTX 210510
RWRMI
MICHIGAN HOURLY REGIONAL WEATHER ROUNDUP
NATIONAL WEATHER SERVICE DETROIT/PONTIAC MI
1200 AM EST SUN JAN 21 2018

NOTE: "FAIR" INDICATES FEW OR NO CLOUDS BELOW 12,000 FEET WITH NO
SIGNIFICANT WEATHER AND/OR OBSTRUCTION TO VISIBILITY.

MIZ047>049-052>055-059>063-066>070-074>076-081>083-210600-
SOUTHEAST LOWER MICHIGAN

CITY           SKY/WX    TMP DP  RH WIND       PRES   REMARKS
ADRIAN         CLOUDY    36  34  92 SW5       30.05S FOG     WCI  32
ALMA           FAIR      33  31  93 S9        30.01R WCI  25
ANN ARBOR      CLOUDY    35  33  92 S6        30.03S WCI  30
BAD AXE        FAIR      29  26  89 SW3       29.99F
CARO           FAIR      28  27  95 CALM      30.00S FOG
DETROIT CITY   FAIR      35  30  82 SW8       30.04S WCI  29
DETROIT        CLOUDY    33  31  92 S6        30.04S WCI  28
FLINT          FAIR      33  28  81 SW7       30.02S WCI  27
GROSSE ILE     CLOUDY    34  32  93 SW3       30.04S
HILLSDALE      CLOUDY    36  34  93 S6        30.01S FOG     WCI  31
HOWELL         FAIR      32  31  96 SW5       30.01S WCI  27

CITY           SKY/WX    TMP DP  RH WIND       PRES   REMARKS
JACKSON        CLOUDY    36  33  89 SW9       30.02R WCI  29
LAMBERTVILLE   CLOUDY    38  35  87 SW7       30.04F WCI  33
LANSING        FAIR      32  30  92 SW7       30.02S WCI  26
LAPEER         FAIR      34  29  82 SW3       30.01F
MASON          CLOUDY    36  32  87 SW3       30.02S
MONROE         CLOUDY    37  34  89 SW8       30.04S WCI  30
MT. CLEMENS    FAIR     N/A N/A N/A SW3         N/A
PONTIAC        MOCLDY    28  26  92 CALM      30.01R
PORT HOPE        N/A     36  30  79 SW7       29.97F WCI  30
PORT HURON     FAIR      30  27  86 CALM      30.03R
TRI CITIES     FAIR      34  31  88 SW6       30.01R WCI  29
MIDLAND        FAIR      30  29  96 CALM      30.00R FOG
TROY           FAIR      33  30  87 SW3       30.05R
SAGINAW HB     FAIR      32  30  93 SW5       30.00S WCI  27
$$
MIZ043>046-050>051-056>058-064>065-071>073-077>080-210600-
SOUTHWEST LOWER MICHIGAN

CITY           SKY/WX    TMP DP  RH WIND       PRES   REMARKS
BATTLE CREEK   CLOUDY    36  34  92 SW7       30.02R WCI  30
BENTON HARBOR  CLOUDY    38  34  85 S6        30.02R WCI  33
BIG RAPIDS     FAIR      30  27  89 CALM      29.98R FOG
COLDWATER      CLOUDY    36  36 100 SW6       30.02S FOG     WCI  31
FREMONT        FAIR      32  27  81 CALM      30.00R
HOLLAND        FAIR      35  32  88 S6        30.01R WCI  30
GRAND RAPIDS   CLOUDY    32  29  88 S6        30.01R WCI  26
IONIA          FAIR      33  30  90 SW7       30.00R WCI  27
KALAMAZOO      CLOUDY    37  34  89 S7        30.02R FOG     WCI  32
LUDINGTON      FAIR      28  28 100 CALM      29.99R FOG
MARSHALL       CLOUDY    36  35  99 SW6       30.02R FOG     WCI  31
MOUNT PLEASANT FAIR      32  30  91 CALM      30.00R FOG
MUSKEGON       FAIR      37  33  85 S10       30.01R WCI  30
SOUTH HAVEN    CLOUDY    39  36  88 SW5       30.02R
$$
MIZ016>042-210600-
NORTHERN LOWER MICHIGAN

CITY           SKY/WX    TMP DP  RH WIND       PRES   REMARKS
ALPENA         FAIR      29  28  96 CALM      29.97F
BEAVER ISLAND  FAIR      30  29  96 CALM      29.97R
BELLAIRE       FAIR      28  28 100 CALM      29.99R
CADILLAC       FAIR      32  31  94 SW3       29.96R
CHARLEVOIX     FAIR      30  30 100 CALM      30.00R
FRANKFORT      FAIR      38  35  89 CALM      29.98R
GAYLORD        FAIR      29  29 100 CALM      29.95R
GRAYLING       FAIR      29  27  92 CALM      29.97R
HARBOR SPRINGS FAIR      30  30  99 CALM      29.98R
HOUGHTON LAKE  FAIR      32  29  88 CALM      29.97R
MANISTEE       FAIR      30  28  92 CALM      29.99  FOG
OSCODA         FAIR      28  27  94 SW3       29.97R
PELLSTON       FAIR      30  29  96 CALM      29.97R
ROGERS CITY    CLOUDY    32  28  85 CALM      29.98S
TRAVERSE CITY  FAIR      32  30  92 CALM      29.97R
$$
MIZ007>008-015-210600-
EASTERN UPPER MICHIGAN

CITY           SKY/WX    TMP DP  RH WIND       PRES   REMARKS
KINROSS        CLOUDY    31  30  96 SW6       29.97R WCI  25
MACKINAC ISLAN MOCLDY    33  30  90 W5        29.97R WCI  28
NEWBERRY       CLOUDY    29  28  96 S6        29.95R WCI  23
S. S. MARIE    CLOUDY    34  29  82 SW3       29.95S
MUNISING         N/A     33  30  88 S7        29.92S WCI  27
$$
MIZ004>006-011>014-085-210600-
CENTRAL UPPER MICHIGAN

CITY           SKY/WX    TMP DP  RH WIND       PRES   REMARKS
MANISTIQUE     FOG       27  25  93 CALM      29.95S VSB 3/4
ESCANABA       FAIR      27  25  92 CALM      29.94S FOG
MENOMINEE      FAIR      32  29  88 CALM      29.95F
SAWYER-GWINN   FAIR      29  26  89 S3        29.91F
$$
MIZ001>003-009>011-084-210600-
WESTERN UPPER MICHIGAN

CITY           SKY/WX    TMP DP  RH WIND       PRES   REMARKS
IRON MOUNTAIN  FAIR      25  22  88 CALM      29.91S
HOUGHTON       FAIR      27  24  89 N3        29.88S
COPPER HARBOR    N/A     32  28  85 SW6       29.90R WCI  26
IRONWOOD       FAIR      31  27  85 CALM      29.90R
$$

ABBREVIATIONS USED IN REMARKS
   TC - TEMPERATURE IN CELSIUS
  WCI - WIND CHILL INDEX
   HX - HEAT INDEX
  VSB - VISIBILITY





USA.gov is the U.S. government's official web portal to all federal, state and local government web resources and services.